This demonstration page uses our WeatherBlox Daily Observations layout. Learn more.

39.08367, -84.50855

Hourly Observations for January 12, 2019

Temp ( °F °C ) Dew Point ( °F °C ) Humidity (%) Winds ( mph kmh ) Pressure ( in mb ) Visibility ( mi km ) Precip ( " mm )
12:53 am 00:53 Cloudy 32 0 20 -6.7 61 61 Calm 30.36 1028 10 16.09344 0 0
1:53 am 01:53 Cloudy 32 0 20 -6.7 61 61 E 3 6 30.36 1028 10 16.09344 0 0
2:20 am 02:20 Cloudy with Light Snow 31 -0.6 22 -5.6 69 69 E 3 6 30.39 1029 2.5 4.02336 0.001 0.001
2:30 am 02:30 Cloudy with Light Snow 30 -1.1 24 -4.4 79 79 E 3 6 30.39 1029 1.25 2.01168 0.001 0.001
2:53 am 02:53 Mostly Cloudy with Scattered Snow Showers 29 -1.7 26 -3.3 89 89 E 3 6 30.36 1028 0.75 1.207008 0.02 0.508
3:10 am 03:10 Mostly Cloudy with Scattered Snow Showers 29 -1.7 26 -3.3 89 89 NE 6 9 30.39 1029 1 1.609344 0.01 0.254
3:18 am 03:18 Mostly Cloudy with Scattered Snow Showers 29 -1.7 26 -3.3 89 89 NE 5 7 30.39 1029 0.75 1.207008 0.02 0.508
3:37 am 03:37 Cloudy with Light Snow 29 -1.7 26 -3.3 89 89 NE 5 7 30.39 1029 1.25 2.01168 0.03 0.762
3:49 am 03:49 Cloudy with Light Snow 28 -2 27 -3 93 93 NNE 5 7 30.36 1028 1.5 2.414016 0.03 0.762
3:53 am 03:53 Cloudy with Light Snow 29 -1.7 26 -3.3 89 89 NE 6 9 30.33 1027 1.5 2.414016 0.03 0.762
4:03 am 04:03 Cloudy with Light Snow 29 -1.7 27 -2.8 92 92 NE 5 7 30.36 1028 1.75 2.816352 0.01 0.254
4:20 am 04:20 Cloudy with Light Snow 29 -1.7 26 -3.3 89 89 NE 5 7 30.36 1028 1.75 2.816352 0.01 0.254
4:26 am 04:26 Cloudy with Light Snow 29 -1.7 26 -3.3 89 89 NE 3 6 30.36 1028 2 3.218688 0.01 0.254
4:30 am 04:30 Cloudy with Light Snow 29 -1.7 26 -3.3 89 89 NE 3 6 30.36 1028 1.75 2.816352 0.01 0.254
4:37 am 04:37 Cloudy with Light Snow 29 -1.7 27 -2.8 92 92 NE 5 7 30.36 1028 1.75 2.816352 0.01 0.254
4:53 am 04:53 Cloudy with Light Snow 29 -1.7 27 -2.8 92 92 NE 3 6 30.33 1027 1.5 2.414016 0.02 0.508
5:15 am 05:15 Cloudy with Light Snow 29 -1.7 27 -2.8 92 92 NE 3 6 30.36 1028 1.5 2.414016 0.01 0.254
5:53 am 05:53 Cloudy with Light Snow 29 -1.7 27 -2.8 92 92 NE 5 7 30.33 1027 1.25 2.01168 0.03 0.762
6:41 am 06:41 Cloudy with Light Snow 29 -1.7 26 -3.3 89 89 ENE 3 6 30.36 1028 2 3.218688 0.02 0.508
6:53 am 06:53 Cloudy with Light Snow 29 -1.7 27 -2.8 92 92 NE 3 6 30.33 1027 1.5 2.414016 0.02 0.508
7:08 am 07:08 Cloudy with Light Snow 29 -1.7 27 -2.8 92 92 NE 3 6 30.36 1028 2.5 4.02336 0.01 0.254
7:23 am 07:23 Cloudy with Light Snow 29 -1.7 27 -2.8 92 92 NNE 3 6 30.39 1029 1.75 2.816352 0.01 0.254
7:53 am 07:53 Cloudy with Light Snow 29 -1.7 27 -2.8 92 92 NE 5 7 30.36 1028 1.75 2.816352 0.02 0.508
8:26 am 08:26 Cloudy with Light Snow 29 -1.7 27 -2.8 92 92 NE 6 9 30.39 1029 0.75 1.207008 0.01 0.254
8:35 am 08:35 Cloudy with Light Snow 29 -1.7 27 -2.8 92 92 NE 6 9 30.39 1029 1 1.609344 0.01 0.254
8:53 am 08:53 Cloudy with Light Snow 29 -1.7 27 -2.8 92 92 NE 6 9 30.36 1028 1 1.609344 0.02 0.508
9:15 am 09:15 Cloudy with Light Snow 29 -1.7 27 -2.8 92 92 NE 5 7 30.39 1029 0.75 1.207008 0.01 0.254
9:28 am 09:28 Cloudy with Light Snow 29 -1.7 27 -2.8 92 92 NE 5 7 30.39 1029 1.25 2.01168 0.01 0.254
9:53 am 09:53 Cloudy with Light Snow 30 -1.1 27 -2.8 88 88 NE 5 7 30.36 1028 1.25 2.01168 0.01 0.254
10:28 am 10:28 Cloudy with Light Snow 30 -1.1 27 -2.8 88 88 NE 6 9 30.39 1029 2 3.218688 0.01 0.254
10:43 am 10:43 Cloudy with Mist and Fog 30 -1.1 27 -2.8 88 88 NE 6 9 30.39 1029 5 8.04672 0.01 0.254
10:53 am 10:53 Cloudy with Light Wintry Mix 31 -0.6 27 -2.8 85 85 NE 6 9 30.36 1028 8 12.874752 0.01 0.254
11:04 am 11:04 Cloudy 31 -0.6 27 -2.8 85 85 NE 7 11 30.39 1029 8 12.874752 0.001 0.001
11:53 am 11:53 Cloudy 33 0.6 28 -2.2 82 82 ENE 5 7 30.33 1027 10 16.09344 0.001 0.001
12:00 pm 12:00 Cloudy 33 0.6 28 -2.2 82 82 E 5 7 30.36 1028 10 16.09344 0 0
12:53 pm 12:53 Cloudy 33 0.6 28 -2.2 82 82 ENE 5 7 30.3 1026 10 16.09344 0 0
1:53 pm 13:53 Cloudy with Light Snow 34 1.1 29 -1.7 82 82 ENE 3 6 30.3 1026 6 9.656064 0.001 0.001
2:53 pm 14:53 Cloudy with Light Rain 33 0.6 30 -1.1 89 89 NE 6 9 30.27 1025 7 11.265408 0.01 0.254
3:53 pm 15:53 Cloudy with Light Rain 34 1.1 31 -0.6 89 89 NE 5 7 30.27 1025 8 12.874752 0.01 0.254
4:09 pm 16:09 Cloudy with Light Rain 33 0.6 31 -0.6 92 92 NE 6 9 30.27 1025 6 9.656064 0.01 0.254
4:53 pm 16:53 Cloudy with Mist and Fog 33 0.6 31 -0.6 92 92 ENE 5 7 30.21 1023 6 9.656064 0.01 0.254
5:53 pm 17:53 Cloudy with Light Snow 34 1.1 31 -0.6 89 89 Calm 30.27 1025 6 9.656064 0.001 0.001
6:53 pm 18:53 Cloudy with Light Snow 33 0.6 31 -0.6 92 92 NNE 7 11 30.24 1024 3 4.828032 0.01 0.254
7:53 pm 19:53 Cloudy with Light Snow 33 0.6 31 -0.6 92 92 NE 5 7 30.24 1024 3 4.828032 0.02 0.508
8:53 pm 20:53 Cloudy with Light Rain 33 0.6 31 -0.6 92 92 NE 5 7 30.21 1023 5 8.04672 0.03 0.762
9:15 pm 21:15 Cloudy with Light Rain 33 0.6 31 -0.6 92 92 NNE 5 7 30.27 1025 6 9.656064 0.01 0.254
9:53 pm 21:53 Cloudy with Light Rain 33 0.6 32 0 96 96 NNE 6 9 30.24 1024 5 8.04672 0.03 0.762
10:53 pm 22:53 Cloudy with Light Rain 34 1.1 32 0 92 92 NE 6 9 30.21 1023 6 9.656064 0.01 0.254
11:05 pm 23:05 Cloudy with Light Rain 34 1.1 32 0 92 92 NE 6 9 30.24 1024 7 11.265408 0.001 0.001
11:16 pm 23:16 Cloudy 34 1.1 32 0 92 92 NE 7 11 30.24 1024 7 11.265408 0.001 0.001
11:23 pm 23:23 Cloudy 34 1.1 32 0 92 92 ENE 7 11 30.24 1024 7 11.265408 0.001 0.001
11:53 pm 23:53 Cloudy with Light Wintry Mix 34 1.1 31 -0.6 89 89 ENE 7 11 30.18 1022 7 11.265408 0.001 0.001

Powered by AerisWeather